Weather History for Amsterdam, Netherlands

Change the Weather History Date:

Sunday, May 12, 2013

  Actual Average Record
Temperature  
Mean Temperature 48 °F -  
Max Temperature 54 °F 64 °F 87 °F (1998)
Min Temperature 43 °F 49 °F 39 °F (2005)
Degree Days  
Heating Degree Days 16    
Moisture  
Dew Point 43 °F    
Average Humidity 77    
Maximum Humidity 93    
Minimum Humidity 53    
Precipitation  
Precipitation 0.04 in - - ()
Sea Level Pressure  
Sea Level Pressure 29.90 in    
Wind  
Wind Speed 12 mph ()    
Max Wind Speed 21 mph    
Max Gust Speed -    
Visibility 7.3 miles    
Events Rain    
Averages and records for this station are not official NWS values.
T = Trace of Precipitation, MM = Missing Value Source: Averaged Metar Reports

Daily Weather History Graph

Daily Weather History Graph

Search for Another Location

Airport:

Trip Planner

Search our weather history database for the weather conditions in past years. The results will help you decide how hot, cold, wet, or windy it might be!

Date:

Astronomy

May. 12, 2013 Rise Set
Actual Time 5:50 AM CEST 9:25 PM CEST
Civil Twilight 5:08 AM CEST 10:07 PM CEST
Nautical Twilight 4:11 AM CEST 11:04 PM CEST
Astronomical Twilight 2:45 AM CEST 12:33 AM CEST
Moon 7:28 AM CEST (5/12) 11:44 PM CEST (5/12)
Length of Visible Light 16h 58m
Length of Day
15h 34m
Waxing Crescent, 5% of the Moon is Illuminated
May 12
Waxing Crescent
May 18
First Quarter
May 25
Full
May 31
Last Quarter
Jun 8
New

Hourly Weather History & Observations

Time (CEST) Temp. Windchill Dew Point Humidity Pressure Visibility Wind Dir Wind Speed Gust Speed Precip Events Conditions
12:25 AM 48.2 °F - 44.6 °F 87% 29.80 in 6.2 mi SW 11.5 mph - N/A Rain Light Rain Showers
12:55 AM 48.2 °F - 46.4 °F 93% 29.80 in 6.2 mi SW 12.7 mph - N/A   Mostly Cloudy
1:25 AM 48.2 °F - 44.6 °F 87% 29.80 in 6.2 mi WSW 15.0 mph - N/A   Mostly Cloudy
1:55 AM 48.2 °F - 44.6 °F 87% 29.80 in 6.2 mi WSW 13.8 mph - N/A   Mostly Cloudy
2:00 AM 47 °F - 44 °F 83% 29.81 in 14 mi WSW 13.4 mph - -   Partly Cloudy
2:25 AM 48.2 °F - 42.8 °F 82% 29.80 in 6.2 mi WSW 15.0 mph - N/A   Mostly Cloudy
2:55 AM 46.4 °F 40.7 °F 42.8 °F 87% 29.80 in 6.2 mi WSW 12.7 mph - N/A   Scattered Clouds
3:25 AM 46.4 °F 41.5 °F 41.0 °F 81% 29.80 in 6.2 mi WSW 10.4 mph - N/A   Scattered Clouds
3:55 AM 46.4 °F 40.7 °F 42.8 °F 87% 29.80 in 6.2 mi WSW 12.7 mph - N/A   Scattered Clouds
4:25 AM 46.4 °F 40.4 °F 41.0 °F 81% 29.80 in 6.2 mi West 13.8 mph - N/A   Mostly Cloudy
4:55 AM 46.4 °F 41.1 °F 42.8 °F 87% 29.80 in 6.2 mi West 11.5 mph - N/A Rain Light Rain Showers
5:00 AM 47 °F - 42 °F 79% 29.82 in 9 mi West 13.4 mph - - Rain Light Rain Showers
5:25 AM 46.4 °F 40.1 °F 42.8 °F 87% 29.80 in 6.2 mi West 15.0 mph - N/A Rain Light Rain Showers
5:55 AM 44.6 °F 38.1 °F 41.0 °F 87% 29.83 in 6.2 mi WNW 13.8 mph - N/A Rain Light Rain Showers
6:25 AM 44.6 °F 40.7 °F 42.8 °F 93% 29.83 in 6.2 mi West 6.9 mph - N/A Rain Light Rain Showers
6:55 AM 44.6 °F 39.7 °F 41.0 °F 87% 29.83 in 6.2 mi WNW 9.2 mph - N/A Rain Light Rain Showers
7:25 AM 44.6 °F 40.7 °F 41.0 °F 87% 29.83 in 6.2 mi WNW 6.9 mph - N/A Rain Light Rain Showers
7:55 AM 44.6 °F 43.1 °F 41.0 °F 87% 29.86 in 6.2 mi West 3.5 mph - N/A   Mostly Cloudy
8:00 AM 45 °F - 41 °F 82% 29.87 in 25 mi West 4.5 mph - - Rain Rain
8:25 AM 46.4 °F 42.4 °F 42.8 °F 87% 29.86 in 6.2 mi WSW 8.1 mph - N/A   Scattered Clouds
8:55 AM 48.2 °F - 42.8 °F 82% 29.86 in 6.2 mi West 12.7 mph - N/A   Mostly Cloudy
9:25 AM 48.2 °F - 42.8 °F 82% 29.89 in 6.2 mi West 12.7 mph - N/A   Scattered Clouds
9:55 AM 50.0 °F - 42.8 °F 76% 29.89 in 6.2 mi West 15.0 mph - N/A   Mostly Cloudy
10:25 AM 50.0 °F - 44.6 °F 82% 29.89 in 6.2 mi West 13.8 mph - N/A   Mostly Cloudy
10:55 AM 50.0 °F - 42.8 °F 76% 29.92 in 6.2 mi West 15.0 mph - N/A   Scattered Clouds
11:00 AM 49 °F - 41 °F 66% 29.93 in 19 mi West 13.4 mph - -   Partly Cloudy
11:25 AM 51.8 °F - 42.8 °F 71% 29.92 in 6.2 mi West 12.7 mph - N/A   Scattered Clouds
11:55 AM 50.0 °F - 41.0 °F 71% 29.92 in 6.2 mi WSW 13.8 mph - N/A   Mostly Cloudy
12:25 PM 51.8 °F - 42.8 °F 71% 29.92 in 6.2 mi West 15.0 mph - N/A   Mostly Cloudy
12:55 PM 51.8 °F - 42.8 °F 71% 29.95 in 6.2 mi WSW 13.8 mph - N/A   Mostly Cloudy
1:25 PM 51.8 °F - 42.8 °F 71% 29.95 in 6.2 mi WSW 15.0 mph - N/A   Mostly Cloudy
1:55 PM 53.6 °F - 44.6 °F 72% 29.95 in 6.2 mi West 15.0 mph - N/A   Mostly Cloudy
2:00 PM 52 °F - 43 °F 63% 29.96 in 15 mi WSW 15.7 mph - -   Partly Cloudy
2:25 PM 50.0 °F - 44.6 °F 82% 29.95 in 4.3 mi West 16.1 mph - N/A Rain Light Rain
2:55 PM 50.0 °F - 46.4 °F 87% 29.95 in 6.2 mi West 16.1 mph - N/A   Mostly Cloudy
3:25 PM 50.0 °F - 44.6 °F 82% 29.95 in 6.2 mi West 17.3 mph - N/A   Mostly Cloudy
3:55 PM 51.8 °F - 44.6 °F 76% 29.95 in 6.2 mi West 16.1 mph - N/A   Mostly Cloudy
4:25 PM 51.8 °F - 44.6 °F 76% 29.98 in 6.2 mi West 20.7 mph - N/A   Mostly Cloudy
4:55 PM 51.8 °F - 42.8 °F 71% 29.98 in 6.2 mi West 17.3 mph - N/A   Scattered Clouds
5:00 PM 53 °F - 44 °F 64% 29.99 in 16 mi West 17.9 mph - -   Partly Cloudy
5:25 PM 53.6 °F - 42.8 °F 67% 29.98 in 6.2 mi WSW 18.4 mph - N/A   Scattered Clouds
5:55 PM 51.8 °F - 42.8 °F 71% 29.98 in 6.2 mi West 19.6 mph - N/A   Scattered Clouds
6:25 PM 51.8 °F - 42.8 °F 71% 29.98 in 6.2 mi WSW 19.6 mph - N/A   Partly Cloudy
6:55 PM 51.8 °F - 41.0 °F 67% 29.98 in 6.2 mi WSW 15.0 mph - N/A   Partly Cloudy
7:25 PM 51.8 °F - 41.0 °F 67% 29.98 in 6.2 mi WSW 16.1 mph - N/A   Partly Cloudy
7:55 PM 51.8 °F - 39.2 °F 62% 29.98 in - WSW 17.3 mph - N/A   Clear
8:00 PM 52 °F - 40 °F 53% 29.98 in 18 mi SW 15.7 mph - -   Partly Cloudy
8:25 PM 51.8 °F - 39.2 °F 62% 29.98 in - SW 13.8 mph - N/A   Clear
8:55 PM 51.8 °F - 41.0 °F 67% 29.95 in 6.2 mi SW 13.8 mph - N/A   Partly Cloudy
9:25 PM 51.8 °F - 39.2 °F 62% 29.95 in - WSW 18.4 mph - N/A   Clear
9:55 PM 50.0 °F - 41.0 °F 71% 29.98 in - SW 20.7 mph - N/A   Clear
10:25 PM 50.0 °F - 42.8 °F 76% 29.98 in 6.2 mi WSW 16.1 mph - N/A   Partly Cloudy
10:55 PM 50.0 °F - 42.8 °F 76% 29.95 in 6.2 mi SW 15.0 mph - N/A Rain Light Rain
11:00 PM 49 °F - 42 °F 69% 29.97 in 12 mi WSW 15.7 mph - -   Overcast
11:25 PM 48.2 °F - 42.8 °F 82% 29.95 in 6.2 mi SW 16.1 mph - N/A Rain Light Rain
11:55 PM 46.4 °F 40.7 °F 42.8 °F 87% 29.95 in 6.2 mi SSW 12.7 mph - N/A Rain Light Rain